Погода в Мироновке

Погода в Мироновке : погода сейчас, прогноз погоды и архив. Всё, что Вы хотите узнать о погоде в Мироновке!

Хотите узнать прогноз погоды в Мироновке? Тогда Вам сюда: Погода в Мироновке

Поиск расширенной информации на нашем сайте:

Другие новости

Новости СМИ2

Главная страница сайта

Новости сайта

02.10.2013

Напоминаем, что на нашем новом сайте вы можете получить высокодетализированные прогнозы погоды по пунктам России, СНГ и мира (включающие важные для авиации метеовеличины, такие как направление и скорость ветра, видимость, явления погоды, количество и форма облачности, нижняя и верхняя граница облачности), а также ознакомиться с разнообразными материалами по авиационной метеорологии и подборкой полезных ссылок на эту тему.

Сайт Метеоцентр.Азия посвящён разработке технологий оптимизации авиаметеорологического обслуживания, включая проектирование и перспективное создание нескольких автоматизированных авиаметеорологических систем:
- система выпуска высокодетальных прогностических карт явлений погоды для нижнего воздушного пространства по России и ближнему зарубежью;
- система верификации прогнозов TAF (выпускаемых синоптиками официальных АМСГ РФ и ближнего зарубежья) и AUTOTAF (выпускаемых сайтом Метеоцентр.Азия) - выявление ошибок, онлайн-сопоставление с фактической погодой METAR, автоматическое внесение коррективов в прогнозы при резком отклонении фактической погоды от прогноза, подсчёт оправдываемости прогнозов по элементам и в целом;
- система обработки, анализа и отображения авиаметеорологической информации для применения провайдерами метеорологической информации.

Рекомендуем: Интересует вакуумные банки от целлюлита отзывы? См. здесь!

Погода в Мироновке - сегодня

Время (UTC), дата Ветер
(°,м/с) 
Видим.   Явления Облачность Т
(°С)
Тd
(°С)
f(%) Тe
(°С)
Pmin
(гПа)
dP
(гПа)
Po
(мм)
O2
(г/м3)
Тmin Tmax R s Состояние
почвы
09 16.02.17 270 (З) 20000 м    ясно 
-2.8 -10.9 54 -2  1034.7  -0.4  761  311           
12 16.02.17 300 (СЗ) 20000 м    5/0 верхняя 
[Cc]
-0.2 -9.9 48 -1  1033.4  -1  760  308           
15 16.02.17 тихо ()   20000 м    5/0 средняя, верхняя 
[Ac trans|Cc]
-2 -10.6 52 -2  1032.3  -1.3  759  309           
18 16.02.17 030 (СВ) 45000 м    9/0 средняя 
[Ac trans]
-2 -9.1 58 -3  1031.1  -1.1  759  309    -0.1       
21 16.02.17 210 (ЮЗ) 25000 м    10/0 средняя 
[Ac und]
-2.8 -9 62 -5  1030.1  -1.1  758  309           
00 17.02.17 220 (ЮЗ) 20000 м    10/0 средняя 
[Ac und]
-2.6 -8.3 65 -4  1028.4  -1.6  757  309           
03 17.02.17 220 (ЮЗ) 19000 м    8/0 средняя 
[Ac trans]
-2.7 -8 67 -6  1026  -2.4  755  308           
06 17.02.17 210 (ЮЗ) 20000 м    10/0 средняя 
[Ac und]
-2.8 -7.3 71 -6  1024.5  -1.5  754  308  -3.6      равномерный
мокрый или
старый снег
100% 
09 17.02.17 230 (ЮЗ) 20000 м    10/0 средняя 
[Ac As]
-0.1 -5.9 65 -3  1023.7  -0.5  753  304           
12 17.02.17 230 (ЮЗ) 20000 м    10/0 средняя, верхняя 
[Ac trans|Ci sp]
+0.5 -5.7 63 -2  1021.9  -1.8  752  303           
15 17.02.17 230 (ЮЗ) 20000 м    10/0 средняя 
[Ac und]
+0 -4.3 73 -1  1021.4  -0.5  752  303           
18 17.02.17 240 (ЮЗ) 25000 м    10/0 средняя 
[Ac und]
-0.4 -5.2 70 -2  1021.2  -0.2  751  304    +0.9       
21 17.02.17 230 (ЮЗ) 19000 м    10/0 верхняя 
[Cs]
-0.7 -5.6 69 -2  1020.4  -0.8  751  304           
00 18.02.17 230 (ЮЗ) 18000 м    10/0 средняя, верхняя 
[Ac trans|Cs]
-0.8 -5.3 71 1019.9  -0.5  750  304           
03 18.02.17 250 (З) 15000 м    10/0 средняя 
[Ac As]
-0.2 -3.8 77 -1  1018.9  -1  750  303           
06 18.02.17 230 (ЮЗ) 12000 м    10/0 средняя 
[Ac As]
+0.1 -2.9 80 -1  1019.4  0.6  750  302  -2.4      равномерный
мокрый или
старый снег
100% 
09 18.02.17 230 (ЮЗ) 3200 м  снег  10/10 480 м 
[Frnb|Ns]
+0.7 +0.1 96 1019.6  0.2  750  302           
12 18.02.17 240 (ЮЗ) 6000 м  слаб. дождь{снег}  10/10 420 м 
[Frnb|Ns]
+1.8 +0.7 92 +1  1019.2  -0.3  750  300      0.8     
15 18.02.17 270 (З) 6000 м  дымка{дождь}  10/10 360 м 
[Sc]
+1.4 +0.3 92 +1  1020  0.7  751  301           
18 18.02.17 270 (З) 7000 м  дымка{дождь}  10/0 средняя 
[Ac As]
+1.4 +0 90 +1  1021.5  1.5  752  301    +2.4     
21 18.02.17 290 (З) 2500 м  дымка  10/0 средняя 
[As op]
+1 +0.2 94 1023.1  1.6  753  302           
00 19.02.17 280 (З) 1900 м  дымка  10/10 700 м 
[Sc]
+0.8 +0.2 96 1024.2  754  303           
03 19.02.17 270 (З) 9000 м  дымка  10/0 средняя 
[Ac und]
+1.2 -0.8 86 +1  1025.1  0.9  754  303           
06 19.02.17 280 (З) 10 км    10/8 1020 м средняя 
[Sc|Ac und]
+1.2 -1.1 85 +1  1026.2  1.1  755  303  +0.8      равномерный
мокрый или
старый снег
100% 
09 19.02.17 280 (З) 15000 м    9/4 1000 м средняя 
[Sc|Ac trans]
+2.9 -0.4 79 +2  1026.4  0.3  755  301           
Время (UTC), дата Ветер
(°,м/с) 
Видим.   Явления Облачность Т
(°С)
Тd
(°С)
f(%) Тe
(°С)
Pmin
(гПа)
dP
(гПа)
Po
(мм)
O2
(г/м3)
Тmin Tmax R s Состояние
почвы

Для получения пояснительной информации подведите курсор к названию столбца.

ПОГОДА в Мироновке - архив

Всё, что Вы хотите узнать о погоде в Мироновке - удобно и подробно!

Выберите нужную дату (начиная с 1 января 2015* года) и нажмите кнопку "Найти".
Будут отображены архивные сводки погоды по пункту Мироновка, начиная с указанной даты.


Отображать данные в формате CSV (для использования в таблицах Excel)


Внимание! Наш архив погоды предназначен исключительно для личного некоммерческого использования в познавательных целях. Если Вам необходимы официальные справки о состоянии погоды (для производственных, юридических, коммерческих и т.п. целей), обращайтесь в органы Росгидромета.

*Примечание: данная дата относится к архиву по метеостанциям СССР (Россия, СНГ, Балтия).
Архив по метеостанциям Зарубежной Европы и Азии (кроме Китая) хранится 10 дней, по другим регионам земного шара (Китай, Африка, Америка, Австралия, Океания) - 1 день.

Мироновка - район местоположения метеостанции


Название, широта, долгота, высота метеостанции:
Мироновка 49.7°ш. 31°д. 153 м над ур. моря [Украина]

Дополнительная информация

В oтличие oт бoльшинства пoгoдных сайтoв мы публикуем пoдрoбную метеoинфoрмацию в детальнoм прoфессиoнальнoм фoрмате.

Характеристики температуры и влажнoсти вoздуха измеряются на высoте 2 м в тени вдали oт зданий и деревьев.
Скoрoсть ветра измеряется на высoте 10 м (на урoвне рoста челoвека скoрoсть ветра ниже в 1.5-2 раза). Если метеoстанция нахoдится в гoрoде или в лесу, тo скoрoсть ветра занижена на 2-4 м/с пo сравнению с oткрытым местoм. Скoрoсть ветра над акватoриями крупных рек и oзёр, а также на вершинах хoлмoв на 2-5 м/с выше, чем в oбычных услoвиях.
Атмoсфернoе давление в разных тoчках местнoсти мoжет значительнo oтличаться oт давления на метеoстанции, в зависимoсти oт услoвий рельефа (при пoдъёме на 10 м давление пoнижается примернo на 1 мм рт.ст.).